Iliamna, AK

7:33 PM AKST on November 19, 2017 (GMT -0900)
Iliamna

Weather History for PAIL - March, 2013

Change the Weather History Date:

Friday, March 15, 2013

  Actual Average Record
Temperature  
Mean Temperature 21 °F -  
Max Temperature 30 °F 31 °F 46 °F (2015)
Min Temperature 12 °F 15 °F -21 °F (1971)
Degree Days  
Heating Degree Days 44    
Moisture  
Dew Point 19 °F    
Average Humidity 87    
Maximum Humidity 100    
Minimum Humidity 60    
Precipitation  
Precipitation 0.01 in - - ()
Snow  
Snow 0.00 in - - ()
Snow Depth 7.00 in    
Sea Level Pressure  
Sea Level Pressure 29.74 in    
Wind  
Wind Speed 9 mph (WSW)    
Max Wind Speed 14 mph    
Max Gust Speed -    
Visibility 6 miles    
Events Snow    
Averages and records for this station are not official NWS values.
T = Trace of Precipitation, MM = Missing Value Source: NWS Daily Summary

Daily Weather History Graph

Daily Weather History Graph

Search for Another Location

Airport or City:

Trip Planner

Search our weather history database for the weather conditions in past years. The results will help you decide how hot, cold, wet, or windy it might be!

Date:

Astronomy

Mar. 15, 2013 Rise Set
Actual Time 8:34 AM AKDT 8:23 PM AKDT
Civil Twilight 7:53 AM AKDT 9:04 PM AKDT
Nautical Twilight 7:05 AM AKDT 9:53 PM AKDT
Astronomical Twilight 6:13 AM AKDT 10:45 PM AKDT
Moon 9:25 AM AKDT (3/15) 12:51 AM AKDT (3/15)
Length of Visible Light 13h 10m
Length of Day
11h 48m
Waxing Crescent, 16% of the Moon is Illuminated
Mar 15
Waxing Crescent
Mar 19
First Quarter
Mar 27
Full
Apr 2
Last Quarter
Apr 10
New

Hourly Weather History & Observations

Time (AKDT) Temp. Windchill Dew Point Humidity Pressure Visibility Wind Dir Wind Speed Gust Speed Precip Events Conditions
12:53 AM 28.9 °F 19.2 °F 24.1 °F 82% 29.70 in 10.0 mi East 11.5 mph - N/A   Overcast
1:53 AM 28.0 °F 18.6 °F 23.0 °F 81% 29.70 in 10.0 mi ENE 10.4 mph - N/A   Overcast
2:53 AM 30.0 °F 22.4 °F 21.0 °F 69% 29.70 in 10.0 mi East 8.1 mph - N/A   Mostly Cloudy
3:53 AM 30.0 °F 22.4 °F 21.9 °F 72% 29.68 in 10.0 mi ESE 8.1 mph - 0.00 in   Overcast
4:53 AM 28.0 °F 21.7 °F 26.1 °F 92% 29.69 in 10.0 mi South 5.8 mph - N/A   Overcast
5:53 AM 27.0 °F 18.7 °F 26.1 °F 96% 29.68 in 9.0 mi South 8.1 mph - 0.00 in Snow Light Snow
6:46 AM 26.6 °F 22.6 °F 26.6 °F 100% 29.69 in 10.0 mi SW 3.5 mph - 0.00 in   Overcast
6:53 AM 28.0 °F 22.8 °F 27.0 °F 96% 29.70 in 10.0 mi West 4.6 mph - 0.00 in   Overcast
7:02 AM 26.6 °F 21.2 °F 26.6 °F 100% 29.68 in 1.8 mi West 4.6 mph - 0.00 in Snow Light Snow
7:19 AM 26.6 °F 18.2 °F 26.6 °F 100% 29.69 in 2.5 mi West 8.1 mph - 0.00 in Snow Light Snow
7:26 AM 26.6 °F 17.5 °F 26.6 °F 100% 29.69 in 5.0 mi West 9.2 mph - 0.00 in Snow Light Snow
7:33 AM 26.6 °F 16.8 °F 26.6 °F 100% 29.69 in 2.5 mi West 10.4 mph - 0.00 in Snow Light Snow
7:43 AM 26.6 °F 17.5 °F 26.6 °F 100% 29.69 in 1.8 mi WSW 9.2 mph - 0.00 in Snow Light Snow
7:45 AM 26.6 °F 16.8 °F 26.6 °F 100% 29.69 in 2.0 mi WSW 10.4 mph - 0.00 in Snow Light Snow
7:48 AM 26.6 °F 17.5 °F 26.6 °F 100% 29.69 in 3.0 mi WSW 9.2 mph - 0.00 in Snow Light Snow
7:53 AM 27.0 °F 18.0 °F 26.1 °F 96% 29.70 in 5.0 mi SW 9.2 mph - 0.00 in Snow Light Snow
8:12 AM 24.8 °F 15.3 °F 24.8 °F 100% 29.69 in 4.0 mi WSW 9.2 mph - 0.00 in Snow Light Snow
8:47 AM 23.0 °F 11.7 °F 21.2 °F 93% 29.69 in 1.8 mi West 11.5 mph - 0.00 in Snow Light Snow
8:53 AM 23.0 °F 11.7 °F 21.0 °F 92% 29.71 in 1.0 mi WSW 11.5 mph - 0.00 in Snow Light Snow
9:00 AM 23.0 °F 12.4 °F 21.2 °F 93% 29.70 in 1.5 mi WSW 10.4 mph - 0.00 in Snow Light Snow
9:05 AM 21.2 °F 8.3 °F 21.2 °F 100% 29.70 in 3.0 mi WSW 13.8 mph - 0.00 in Snow Light Snow
9:53 AM 21.0 °F 9.3 °F 18.0 °F 88% 29.73 in 3.0 mi West 11.5 mph - 0.00 in Snow Light Snow
10:00 AM 19.4 °F 6.6 °F 19.4 °F 100% 29.71 in 1.5 mi WSW 12.7 mph - 0.00 in Snow Light Snow
10:08 AM 19.4 °F 7.2 °F 19.4 °F 100% 29.72 in 0.8 mi WSW 11.5 mph - 0.00 in Snow Light Snow
10:15 AM 19.4 °F 6.0 °F 17.6 °F 93% 29.71 in 1.0 mi WSW 13.8 mph - 0.00 in Snow Light Snow
10:53 AM 18.0 °F 4.8 °F 16.0 °F 92% 29.74 in 1.0 mi WSW 12.7 mph - 0.01 in Snow Light Snow
10:58 AM 17.6 °F 4.3 °F 15.8 °F 93% 29.73 in 3.0 mi WSW 12.7 mph - 0.00 in Snow Light Snow
11:26 AM 17.6 °F 3.7 °F 15.8 °F 93% 29.74 in 1.8 mi WSW 13.8 mph - 0.00 in Snow Light Snow
11:53 AM 17.1 °F 4.3 °F 15.1 °F 92% 29.76 in 1.2 mi WSW 11.5 mph - 0.00 in Snow Light Snow
12:02 PM 17.6 °F 5.0 °F 15.8 °F 93% 29.75 in 3.0 mi WSW 11.5 mph - 0.00 in Snow Light Snow
12:26 PM 17.6 °F 6.4 °F 15.8 °F 93% 29.76 in 6.0 mi SW 9.2 mph - 0.00 in Snow Light Snow
12:43 PM 19.4 °F 7.2 °F 15.8 °F 86% 29.76 in 7.0 mi SW 11.5 mph - 0.00 in Snow Light Snow
12:53 PM 19.0 °F 7.5 °F 16.0 °F 88% 29.78 in 6.0 mi WSW 10.4 mph - 0.00 in Snow Light Snow
1:24 PM 19.4 °F 9.5 °F 15.8 °F 86% 29.76 in 9.0 mi WSW 8.1 mph - 0.00 in   Scattered Clouds
1:53 PM 19.9 °F 9.3 °F 15.1 °F 81% 29.80 in 10.0 mi SW 9.2 mph - 0.00 in   Mostly Cloudy
2:53 PM 19.9 °F 7.9 °F 14.0 °F 78% 29.81 in 10.0 mi SW 11.5 mph - 0.00 in   Overcast
3:34 PM 19.4 °F 7.9 °F 12.2 °F 74% 29.80 in 10.0 mi SW 10.4 mph - N/A   Overcast
3:53 PM 19.9 °F 9.3 °F 12.0 °F 71% 29.81 in 10.0 mi SW 9.2 mph - N/A   Mostly Cloudy
4:53 PM 19.9 °F 11.1 °F 12.0 °F 71% 29.82 in 10.0 mi West 6.9 mph - N/A   Mostly Cloudy
5:53 PM 19.9 °F 11.1 °F 12.0 °F 71% 29.82 in 10.0 mi WSW 6.9 mph - N/A   Mostly Cloudy
6:53 PM 19.0 °F 11.1 °F 10.9 °F 71% 29.83 in 10.0 mi West 5.8 mph - N/A   Mostly Cloudy
7:53 PM 18.0 °F - 10.9 °F 74% 29.83 in 10.0 mi Calm Calm - N/A   Overcast
8:53 PM 16.0 °F - 10.0 °F 77% 29.84 in 10.0 mi Calm Calm - N/A   Overcast
9:53 PM 14.0 °F - 9.0 °F 80% 29.84 in 10.0 mi Calm Calm - N/A   Overcast
10:53 PM 15.1 °F - 10.9 °F 84% 29.85 in 10.0 mi Calm Calm - N/A   Overcast
11:53 PM 15.1 °F 9.4 °F 12.0 °F 88% 29.85 in 10.0 mi North 3.5 mph - N/A   Overcast